[[{"header":{"parameterUnit":"m.s-1","parameterCategory":1,"la1":30.2991,"la2":30.254,"lo1":-89.0895,"lo2":-89.0444,"dy":0.0017,"dx":0.0017,"nx":28,"ny":28,"refTime":"2024-08-22T09:00:00:Z","depth":0,"parameterNumber":2,"parameterNumberName":"U-component_of_WINDS"},"data":[0,0,0,0,0,0,0,0,0,0,0,0,0,0,0,0,0,0,0,0,0,0,0,0,0,0,0,0,0,0,0,0,0,0,0,0,0,0,0,0,0,0,0,0,0,0,0,0,0,0,0,0,0,0,0,0,0,0,-4.1667,-4.1668,0,-4.1734,-4.1734,-4.1735,-4.1665,-4.1662,-4.1659,-4.1657,-4.1728,-4.1732,-4.1736,0,0,0,0,0,0,0,0,0,0,0,0,0,-4.1481,-4.1484,-4.1667,-4.1668,-4.1668,-4.1734,-4.1734,-4.1735,-4.1665,-4.1662,-4.1659,-4.1655,-4.1726,-4.1731,-4.1737,0,0,0,0,0,0,0,0,0,0,0,0,0,-4.1556,-4.1486,-4.1667,-4.1641,-4.164,-4.1733,-4.1734,-4.1736,-4.1666,-4.1662,-4.1658,-4.1654,-4.1724,-4.1731,-4.1737,-4.186,0,0,-4.1758,-4.1761,0,0,0,0,0,0,0,0,-4.1552,-4.1563,-4.1644,-4.1643,-4.1641,-4.1687,-4.1695,-4.1777,-4.1667,-4.1656,-4.1657,-4.1652,-4.1717,-4.1724,-4.1746,-4.1864,-4.1867,-4.1758,-4.1762,-4.1765,-4.1767,0,0,0,0,0,0,0,-4.1547,-4.156,-4.1693,-4.1645,-4.1644,-4.1627,-4.1633,-4.171,-4.1709,-4.1657,-4.1652,-4.166,-4.1716,-4.174,-4.1747,-4.1868,-4.1758,-4.1764,-4.1768,-4.1771,-4.2091,-4.2095,0,0,0,0,0,0,-4.1544,-4.1556,-4.1691,-4.1695,-4.1586,-4.1634,-4.1641,-4.1676,-4.1708,-4.1709,-4.1664,-4.1657,-4.173,-4.1739,-4.1749,-4.1896,-4.1765,-4.1771,-4.1775,-4.2086,-4.2092,-4.2097,0,0,0,0,0,0,-4.154,-4.1557,-4.1688,-4.1624,-4.164,-4.1641,-4.1682,-4.168,-4.1703,-4.1713,-4.1713,-4.1688,-4.1727,-4.174,-4.1833,-4.1898,-4.1774,-4.178,-4.2081,-4.2088,-4.2094,-4.2191,0,0,0,0,0,0,-4.1535,-4.1556,-4.1602,-4.1626,-4.1643,-4.1771,-4.1686,-4.1684,-4.1715,-4.1706,-4.1736,-4.1737,-4.1725,-4.1824,-4.184,-4.1905,-4.1786,-4.2075,-4.2084,-4.2092,-4.2182,-4.22,-4.2216,0,0,0,0,0,-4.1529,-4.1627,-4.1605,-4.1621,-4.1701,-4.1775,-4.1785,-4.1769,-4.172,-4.1767,-4.1774,-4.1736,-4.1888,-4.1834,-4.1851,-4.1919,-4.2071,-4.2082,-4.2091,-4.2174,-4.2197,-4.2215,0,0,0,0,0,0,-4.1611,-4.1629,-4.1605,-4.1713,-4.1743,-4.1763,-4.1821,-4.1792,-4.1837,-4.1827,-4.1806,-4.1813,-4.1912,-4.1925,-4.1864,-4.204,-4.1972,-4.1986,-4.2029,-4.205,-4.2066,-4.2062,-4.1791,0,0,0,0,0,-4.1642,-4.1699,-4.1712,-4.1807,-4.1823,-4.182,-4.1851,-4.1836,-4.1866,-4.1878,-4.1891,-4.1923,-4.1978,-4.2014,-4.2065,-4.2183,-4.2189,-4.2238,-4.2255,-4.2269,-4.2282,-4.2347,-4.2369,-4.213,-4.213,-4.213,0,0,-4.1706,-4.1723,-4.1761,-4.1824,-4.1845,-4.1906,-4.1831,-4.1898,-4.1944,-4.1889,-4.1978,-4.1989,-4.2022,-4.2129,-4.2177,-4.2143,-4.2349,-4.2282,-4.2293,-4.2298,-4.2359,-4.2382,-4.2402,-4.2137,-4.2136,-4.2135,0,0,-4.1854,-4.1873,-4.1954,-4.1976,-4.2009,-4.2006,-4.2026,-4.205,-4.2055,-4.2144,-4.2104,-4.2158,-4.2253,-4.2279,-4.2304,-4.2463,-4.2431,-4.248,-4.2569,-4.2632,-4.2651,-4.2668,-4.2726,-4.2747,-4.2493,-4.2493,-4.2493,0,-4.1931,-4.202,-4.1999,-4.207,-4.21,-4.2052,-4.2135,-4.2158,-4.2206,-4.2228,-4.2189,-4.2307,-4.2326,-4.2438,-4.2477,-4.2499,-4.2522,-4.2477,-4.265,-4.2666,-4.2682,-4.2737,-4.2759,-4.2499,-4.2498,-4.2498,-4.2497,0,-4.2113,-4.2176,-4.2237,-4.2285,-4.2321,-4.2397,-4.2389,-4.2428,-4.241,-4.2412,-4.2504,-4.2525,-4.258,-4.2605,-4.2588,-4.2716,-4.2694,-4.2653,-4.2584,-4.2711,-4.2762,-4.2783,-4.2507,-4.2505,-4.2504,-4.2502,0,0,-4.2316,-4.235,-4.2374,-4.2395,-4.2427,-4.2476,-4.2551,-4.2604,-4.2639,-4.2673,-4.2736,-4.2817,-4.278,-4.2809,-4.2794,-4.285,-4.2976,-4.2802,-4.2802,-4.2835,-4.312,-4.3152,-4.3177,-4.2954,-4.2958,-4.2961,-4.3118,0,-4.2466,-4.2595,-4.2579,-4.2703,-4.2761,-4.2717,-4.2782,-4.281,-4.2814,-4.2864,-4.2868,-4.2927,-4.2872,-4.289,-4.2942,-4.295,-4.3033,-4.2938,-4.3015,-4.3018,-4.3009,-4.3203,-4.3237,-4.3384,-4.3138,-4.3141,-4.3144,0,-4.2659,-4.27,-4.283,-4.2854,-4.2878,-4.2937,-4.2985,-4.3034,-4.3064,-4.3063,-4.3096,-4.3072,-4.3148,-4.3076,-4.3182,-4.3117,-4.3148,-4.3156,-4.3161,-4.3169,-4.3089,-4.3218,-4.343,-4.3453,-4.3175,-4.3172,-4.317,0,-4.2796,-4.2884,-4.2973,-4.2992,-4.3023,-4.3065,-4.308,-4.3107,-4.314,-4.3182,-4.3203,-4.3254,-4.3282,-4.3322,-4.3313,-4.3261,-4.3421,-4.3348,-4.3424,-4.3424,-4.3461,-4.3459,-4.3682,-4.3478,-4.3478,-4.3477,-4.3477,0,-4.2966,-4.3048,-4.3035,-4.309,-4.3181,-4.3161,-4.3252,-4.3261,-4.3285,-4.3342,-4.3306,-4.3361,-4.3344,-4.3399,-4.3392,-4.3481,-4.3494,-4.3496,-4.3493,-4.35,-4.35,-4.3521,-4.3511,-4.3483,-4.3482,-4.3481,-4.348,0,-4.3135,-4.313,-4.3224,-4.3245,-4.3252,-4.3318,-4.3336,-4.3389,-4.3389,-4.3462,-4.3478,-4.348,-4.3541,-4.3535,-4.3605,-4.36,-4.3712,-4.3696,-4.3701,-4.3698,-4.3775,-4.3768,-4.402,-4.4053,-4.3826,-4.3829,-4.383,0,-4.3245,-4.3307,-4.3334,-4.3369,-4.3387,-4.3444,-4.3477,-4.3461,-4.3497,-4.3538,-4.3586,-4.3644,-4.369,-4.3791,-4.3799,-4.3853,-4.3839,-4.3924,-4.3847,-4.3852,-4.3843,-4.384,-4.3846,-4.394,-4.3942,-4.3944,-4.3946,0,-4.3441,-4.3435,-4.3484,-4.3534,-4.3575,-4.3612,-4.3647,-4.3678,-4.3665,-4.3708,-4.377,-4.3806,-4.3877,-4.3936,-4.3987,-4.4003,-4.3974,-4.397,-4.399,-4.3999,-4.4,-4.4002,-4.3744,-4.3964,-4.3963,-4.3961,-4.396,-4.396,-4.3585,-4.3638,-4.3665,-4.3722,-4.3746,-4.3779,-4.3829,-4.3836,-4.3888,-4.3944,-4.3931,-4.4002,-4.4032,-4.4097,-4.4118,-4.4174,-4.4144,-4.4173,-4.4181,-4.4189,-4.4198,-4.3989,-4.4183,-4.4182,-4.4182,-4.4182,-4.4181,0,-4.378,-4.3796,-4.3848,-4.3897,-4.3942,-4.3908,-4.3945,-4.3985,-4.4047,-4.4077,-4.4123,-4.4196,-4.4253,-4.4265,-4.4321,-4.4363,-4.4351,-4.4378,-4.4376,-4.438,-4.4222,-4.4199,-4.4387,-4.4387,-4.4387,-4.4387,-4.4387,-4.4387,-4.3887,-4.3976,-4.3974,-4.4074,-4.4089,-4.4157,-4.4181,-4.4212,-4.4236,-4.4318,-4.4366,-4.4373,-4.4397,-4.4453,-4.4505,-4.4507,-4.453,-4.4563,-4.456,-4.4412,-4.4391,-4.4372,-4.435,-4.4567,-4.4568,-4.4714,-4.4716,-4.4717]},{"header":{"parameterUnit":"m.s-1","parameterCategory":1,"la1":30.2991,"la2":30.254,"lo1":-89.0895,"lo2":-89.0444,"dy":0.0017,"dx":0.0017,"nx":28,"ny":28,"refTime":"2024-08-22T09:00:00:Z","depth":0,"parameterNumber":3,"parameterNumberName":"V-component_of_WINDS"},"data":[0,0,0,0,0,0,0,0,0,0,0,0,0,0,0,0,0,0,0,0,0,0,0,0,0,0,0,0,0,0,0,0,0,0,0,0,0,0,0,0,0,0,0,0,0,0,0,0,0,0,0,0,0,0,0,0,0,0,-2.5109,-2.5109,0,-2.5112,-2.5112,-2.5112,-2.5061,-2.506,-2.5058,-2.5057,-2.5061,-2.5063,-2.5064,0,0,0,0,0,0,0,0,0,0,0,0,0,-2.5058,-2.5059,-2.5109,-2.5109,-2.5109,-2.5112,-2.5112,-2.5112,-2.5061,-2.506,-2.5058,-2.5056,-2.5061,-2.5062,-2.5064,0,0,0,0,0,0,0,0,0,0,0,0,0,-2.5073,-2.506,-2.5109,-2.5084,-2.5081,-2.5112,-2.5112,-2.5112,-2.5062,-2.506,-2.5057,-2.5055,-2.506,-2.5062,-2.5064,-2.5119,0,0,-2.5071,-2.5072,0,0,0,0,0,0,0,0,-2.5072,-2.5075,-2.5087,-2.5085,-2.5083,-2.5084,-2.5096,-2.5115,-2.5062,-2.5069,-2.5057,-2.5054,-2.507,-2.5072,-2.5077,-2.5119,-2.5119,-2.5071,-2.5072,-2.5073,-2.5074,0,0,0,0,0,0,0,-2.5071,-2.5074,-2.511,-2.5088,-2.5085,-2.5072,-2.5072,-2.5099,-2.5082,-2.5068,-2.5065,-2.5066,-2.5069,-2.5075,-2.5077,-2.512,-2.5071,-2.5073,-2.5074,-2.5075,-2.5207,-2.5209,0,0,0,0,0,0,-2.5073,-2.5074,-2.511,-2.511,-2.5072,-2.5075,-2.5075,-2.5086,-2.5081,-2.5078,-2.5068,-2.5063,-2.5072,-2.5074,-2.5077,-2.5141,-2.5073,-2.5075,-2.5076,-2.5205,-2.5208,-2.521,0,0,0,0,0,0,-2.5072,-2.5077,-2.511,-2.5091,-2.5094,-2.5078,-2.5091,-2.5087,-2.5093,-2.508,-2.5077,-2.5077,-2.5071,-2.5074,-2.5109,-2.514,-2.5076,-2.5078,-2.5202,-2.5206,-2.5209,-2.527,0,0,0,0,0,0,-2.5071,-2.5077,-2.5098,-2.5092,-2.5095,-2.5142,-2.5093,-2.5089,-2.5097,-2.5091,-2.5088,-2.5086,-2.5069,-2.5106,-2.5111,-2.5142,-2.508,-2.52,-2.5204,-2.5208,-2.5265,-2.5275,-2.5284,0,0,0,0,0,-2.507,-2.5115,-2.5099,-2.5104,-2.5121,-2.5144,-2.5146,-2.5126,-2.5099,-2.512,-2.5112,-2.5086,-2.5136,-2.511,-2.5115,-2.5148,-2.5198,-2.5203,-2.5208,-2.5261,-2.5273,-2.5283,0,0,0,0,0,0,-2.5125,-2.5114,-2.5096,-2.514,-2.5144,-2.5135,-2.5161,-2.5139,-2.515,-2.5145,-2.5119,-2.5119,-2.5159,-2.5156,-2.5128,-2.52,-2.5162,-2.5168,-2.5201,-2.5212,-2.5221,-2.5222,-2.5081,0,0,0,0,0,-2.5142,-2.5162,-2.5151,-2.5191,-2.5194,-2.5177,-2.5187,-2.5171,-2.5173,-2.5174,-2.5169,-2.5172,-2.5189,-2.52,-2.5214,-2.5264,-2.5263,-2.5289,-2.5298,-2.5305,-2.5312,-2.5338,-2.535,-2.5227,-2.5227,-2.5227,0,0,-2.5179,-2.5175,-2.5189,-2.5203,-2.5203,-2.5225,-2.5179,-2.5203,-2.5219,-2.5178,-2.5211,-2.5207,-2.5209,-2.5252,-2.5271,-2.5252,-2.5345,-2.5312,-2.5318,-2.532,-2.5345,-2.5357,-2.5367,-2.523,-2.523,-2.5229,0,0,-2.5256,-2.5255,-2.5289,-2.529,-2.5291,-2.528,-2.5288,-2.5283,-2.5279,-2.5312,-2.5282,-2.53,-2.5328,-2.5331,-2.5336,-2.5414,-2.5391,-2.542,-2.5468,-2.5495,-2.5504,-2.5513,-2.5542,-2.5552,-2.5426,-2.5426,-2.5426,0,-2.5301,-2.5332,-2.5309,-2.5335,-2.5343,-2.5306,-2.534,-2.5343,-2.5349,-2.5355,-2.5332,-2.5368,-2.5366,-2.541,-2.5429,-2.5434,-2.5443,-2.5421,-2.5505,-2.5513,-2.5521,-2.5548,-2.5559,-2.5429,-2.5429,-2.5428,-2.5428,0,-2.5388,-2.541,-2.5437,-2.5444,-2.5454,-2.5484,-2.5465,-2.5478,-2.5461,-2.5452,-2.5486,-2.5483,-2.5497,-2.5505,-2.5489,-2.5547,-2.5535,-2.5509,-2.547,-2.5536,-2.5561,-2.5572,-2.5434,-2.5433,-2.5432,-2.5431,0,0,-2.5502,-2.5495,-2.5505,-2.5508,-2.5507,-2.5523,-2.5552,-2.5564,-2.5576,-2.5581,-2.5605,-2.563,-2.5606,-2.5612,-2.5596,-2.5619,-2.5682,-2.559,-2.559,-2.5608,-2.5746,-2.5766,-2.5779,-2.5666,-2.5667,-2.5669,-2.5746,0,-2.5578,-2.5626,-2.5606,-2.5657,-2.5677,-2.5642,-2.5667,-2.5669,-2.5661,-2.5677,-2.5668,-2.5687,-2.5653,-2.5657,-2.5678,-2.567,-2.5709,-2.5663,-2.5688,-2.5689,-2.569,-2.5792,-2.5813,-2.5886,-2.5756,-2.5757,-2.5758,0,-2.5673,-2.5683,-2.5735,-2.573,-2.5738,-2.5761,-2.5771,-2.5787,-2.5788,-2.5781,-2.5787,-2.5765,-2.5793,-2.5754,-2.5792,-2.5761,-2.577,-2.5768,-2.577,-2.5773,-2.5729,-2.5798,-2.5909,-2.5921,-2.5773,-2.5772,-2.5771,0,-2.5753,-2.5778,-2.5813,-2.5816,-2.5811,-2.5828,-2.5826,-2.5826,-2.5835,-2.5843,-2.5849,-2.5861,-2.5868,-2.5878,-2.586,-2.5832,-2.5901,-2.586,-2.5897,-2.5897,-2.5914,-2.5913,-2.6029,-2.5917,-2.5917,-2.5917,-2.5917,0,-2.584,-2.5874,-2.5848,-2.587,-2.5907,-2.5883,-2.592,-2.5915,-2.5915,-2.5935,-2.5905,-2.5924,-2.5899,-2.5916,-2.5902,-2.5937,-2.594,-2.5935,-2.5931,-2.5939,-2.5939,-2.5945,-2.594,-2.592,-2.5919,-2.5919,-2.5918,0,-2.5936,-2.5919,-2.5956,-2.5947,-2.5946,-2.5974,-2.5967,-2.5987,-2.5976,-2.6002,-2.6007,-2.5991,-2.601,-2.5992,-2.601,-2.6001,-2.6047,-2.6035,-2.6047,-2.6044,-2.6082,-2.608,-2.6207,-2.6223,-2.61,-2.6101,-2.6102,0,-2.5994,-2.6019,-2.6014,-2.6025,-2.6025,-2.6044,-2.6053,-2.603,-2.6041,-2.6044,-2.6064,-2.608,-2.6091,-2.6123,-2.6113,-2.6127,-2.6116,-2.6159,-2.6117,-2.6124,-2.6118,-2.6117,-2.612,-2.6168,-2.617,-2.6171,-2.6172,0,-2.6099,-2.6089,-2.6103,-2.6115,-2.6127,-2.6134,-2.614,-2.6151,-2.6127,-2.6141,-2.6159,-2.6169,-2.6187,-2.6203,-2.6213,-2.6212,-2.6189,-2.6185,-2.6194,-2.6203,-2.6209,-2.6207,-2.6072,-2.6182,-2.6181,-2.618,-2.618,-2.6179,-2.6178,-2.6199,-2.6199,-2.6215,-2.6217,-2.6223,-2.6241,-2.6233,-2.6248,-2.6261,-2.6246,-2.6269,-2.627,-2.6281,-2.6283,-2.63,-2.6282,-2.6296,-2.6299,-2.6303,-2.631,-2.6205,-2.6302,-2.6302,-2.6301,-2.6301,-2.6301,0,-2.6282,-2.628,-2.6296,-2.6305,-2.6318,-2.6293,-2.6298,-2.6311,-2.6332,-2.6334,-2.6346,-2.6368,-2.6384,-2.6375,-2.6389,-2.6405,-2.6394,-2.6409,-2.6409,-2.6409,-2.6324,-2.6316,-2.6417,-2.6417,-2.6417,-2.6417,-2.6417,-2.6417,-2.6338,-2.6373,-2.6364,-2.6399,-2.6396,-2.6419,-2.6424,-2.6429,-2.6431,-2.6456,-2.6469,-2.6463,-2.6461,-2.6474,-2.6488,-2.6485,-2.6492,-2.6511,-2.6504,-2.6426,-2.6415,-2.6404,-2.6395,-2.6512,-2.6512,-2.6587,-2.6588,-2.6588]}]]